Вернуться в каталог

COSMOS 1275 DEB

АктивенPO
NORAD 39936·DEBRIS·🇷🇺 Russia

Запущен Jun 4, 1981 с Plesetsk Cosmodrome

Loading…

Ближайшие Пролёты (ближайшие 24 часа)

TLE

СвежийSource: Space-Track

Эпоха: Sep 13, 2026, 09:51 UTC

1 39936U 81053MW  26256.41083494  .00000516  00000-0  39223-3 0  9995
2 39936  83.1480 134.3536 0057559 294.2029  65.3127 13.91251389610924

Отслеживайте COSMOS 1275 DEB в реальном времени с AllMySat

Download on the App Store